Weather History for Covington, KY

Change the Weather History Date:

Saturday, December 21, 2013

  Actual Average Record
Temperature  
Mean Temperature 64 °F 32 °F  
Max Temperature 68 °F 40 °F 69 °F (1967)
Min Temperature 59 °F 25 °F -14 °F (1989)
Degree Days  
Heating Degree Days 1 32  
Month to date heating degree days 602 625  
Since 1 July heating degree days 1638 1585  
Cooling Degree Days 0 0  
Month to date cooling degree days 0 0  
Year to date cooling degree days 1150 1121  
Growing Degree Days 14 (Base 50)    
Moisture  
Dew Point 60 °F    
Average Humidity 91    
Maximum Humidity 100    
Minimum Humidity 81    
Precipitation  
Precipitation 1.86 in 0.11 in 2.47 in (1998)
Month to date precipitation 4.20 2.27  
Year to date precipitation 48.77 41.42  
Snow  
Snow 0.00 in 0.10 in 3.90 in (1981)
Month to date snowfall 10.1 2.8  
Since 1 July snowfall 12.5 3.6  
Snow Depth 0.00 in    
Sea Level Pressure  
Sea Level Pressure 29.70 in    
Wind  
Wind Speed 15 mph (South)    
Max Wind Speed 33 mph    
Max Gust Speed 46 mph    
Visibility 6 miles    
Events Rain , Thunderstorm    
T = Trace of Precipitation, MM = Missing Value Source: NWS Daily Summary

Daily Weather History Graph

Daily Weather History Graph

Search for Another Location

Airport:

Trip Planner

Search our weather history database for the weather conditions in past years. The results will help you decide how hot, cold, wet, or windy it might be!

Date:

Astronomy

Dec. 21, 2013 Rise Set
Actual Time 7:54 AM EST 5:19 PM EST
Civil Twilight 7:24 AM EST 5:49 PM EST
Nautical Twilight 6:50 AM EST 6:23 PM EST
Astronomical Twilight 6:18 AM EST 6:55 PM EST
Moon 9:33 PM EST (12/21) 10:21 AM EST (12/21)
Length of Visible Light 10h 25m
Length of Day
9h 25m
Waning Gibbous, 84% of the Moon is Illuminated
Dec 21
Waning Gibbous
Dec 25
Last Quarter
Jan 1
New
Jan 7
First Quarter
Jan 15
Full

Hourly Weather History & Observations

Time (EST) Temp. Dew Point Humidity Pressure Visibility Wind Dir Wind Speed Gust Speed Precip Events Conditions
12:52 AM 61.0 °F 57.0 °F 87% 29.82 in 10.0 mi SSW 15.0 mph 27.6 mph N/A   Overcast
1:52 AM 61.0 °F 57.9 °F 90% 29.81 in 10.0 mi SSW 16.1 mph 24.2 mph 0.00 in   Overcast
2:52 AM 60.1 °F 57.9 °F 93% 29.81 in 8.0 mi South 16.1 mph 26.5 mph 0.02 in Rain Light Rain
3:52 AM 59.0 °F 57.9 °F 96% 29.80 in 9.0 mi South 10.4 mph - 0.04 in Rain Light Rain
4:44 AM 59.0 °F 57.2 °F 94% 29.80 in 5.0 mi South 10.4 mph - 0.08 in Rain Rain
4:52 AM 59.0 °F 57.9 °F 96% 29.79 in 5.0 mi South 10.4 mph - 0.09 in Rain Light Rain
5:09 AM 59.0 °F 57.2 °F 94% 29.80 in 7.0 mi SSW 9.2 mph - 0.01 in Rain Light Rain
5:52 AM 59.0 °F 57.9 °F 96% 29.78 in 5.0 mi South 16.1 mph 21.9 mph 0.04 in Rain Rain
6:31 AM 60.8 °F 59.0 °F 94% 29.78 in 4.0 mi South 16.1 mph 24.2 mph 0.09 in Rain Light Rain
6:52 AM 60.1 °F 59.0 °F 96% 29.76 in 6.0 mi South 12.7 mph - 0.12 in Rain Light Rain
7:52 AM 59.0 °F 57.9 °F 96% 29.77 in 5.0 mi South 11.5 mph - 0.04 in Rain Rain
8:01 AM 59.0 °F 57.2 °F 94% 29.78 in 3.0 mi South 8.1 mph - 0.03 in Rain Rain
8:27 AM 59.0 °F 57.2 °F 94% 29.78 in 5.0 mi South 10.4 mph - 0.10 in Rain Rain
8:52 AM 59.0 °F 57.9 °F 96% 29.78 in 2.0 mi South 16.1 mph 21.9 mph 0.19 in Rain Heavy Rain
9:04 AM 59.0 °F 57.2 °F 94% 29.79 in 1.0 mi South 17.3 mph 25.3 mph 0.10 in Rain Heavy Rain
9:52 AM 59.0 °F 57.9 °F 96% 29.77 in 4.0 mi South 15.0 mph - 0.25 in Rain Light Rain
11:52 AM 60.1 °F 59.0 °F 96% 29.74 in 3.0 mi South 10.4 mph - 0.12 in Rain Light Rain
12:02 PM 60.8 °F 59.0 °F 94% 29.74 in 1.5 mi South 11.5 mph - 0.04 in   Overcast
12:43 PM 60.8 °F 59.0 °F 94% 29.73 in 2.5 mi South 8.1 mph - 0.11 in Rain Rain
12:52 PM 59.0 °F 59.0 °F 100% 29.71 in 2.5 mi South 8.1 mph - 0.12 in Rain Rain
1:52 PM 61.0 °F 60.1 °F 97% 29.69 in 5.0 mi South 13.8 mph 19.6 mph 0.05 in Rain Light Rain
2:49 PM 62.6 °F 60.8 °F 94% 29.69 in 10.0 mi SSW 15.0 mph 20.7 mph 0.00 in   Overcast
2:52 PM 63.0 °F 61.0 °F 93% 29.68 in 10.0 mi SSW 12.7 mph 20.7 mph 0.00 in   Overcast
3:52 PM 64.9 °F 62.1 °F 90% 29.67 in 10.0 mi South 13.8 mph 21.9 mph N/A   Overcast
4:40 PM 64.4 °F 62.6 °F 94% 29.70 in 10.0 mi South 11.5 mph 20.7 mph 0.00 in   Overcast
4:52 PM 64.9 °F 62.1 °F 90% 29.68 in 10.0 mi South 15.0 mph - 0.00 in   Overcast
5:52 PM 64.9 °F 62.1 °F 90% 29.67 in 10.0 mi South 16.1 mph 21.9 mph N/A   Overcast
6:52 PM 64.9 °F 62.1 °F 90% 29.63 in 10.0 mi SSE 23.0 mph 33.4 mph 0.00 in Rain Light Rain
7:32 PM 64.4 °F 62.6 °F 94% 29.64 in 10.0 mi South 19.6 mph 28.8 mph 0.01 in Rain Light Rain
7:52 PM 64.9 °F 62.1 °F 90% 29.60 in 10.0 mi South 25.3 mph 31.1 mph 0.01 in   Overcast
8:22 PM 64.4 °F 62.6 °F 94% 29.57 in 10.0 mi South 21.9 mph 32.2 mph N/A   Overcast
8:52 PM 66.0 °F 62.1 °F 87% 29.52 in 10.0 mi South 26.5 mph 38.0 mph N/A   Overcast
9:52 PM 68.0 °F 62.1 °F 81% 29.46 in 10.0 mi South 31.1 mph 46.0 mph 0.00 in   Overcast
10:22 PM 64.4 °F 62.6 °F 94% 29.55 in 3.0 mi West 23.0 mph 36.8 mph 0.05 in Rain Rain
10:40 PM 62.6 °F 60.8 °F 94% 29.57 in 3.0 mi WSW 16.1 mph 25.3 mph 0.22 in Rain Rain
10:52 PM 63.0 °F 62.1 °F 97% 29.53 in 3.0 mi WSW 9.2 mph - 0.30 in Rain Heavy Rain
11:18 PM 62.6 °F 62.6 °F 100% 29.55 in 3.0 mi South 12.7 mph - 0.25 in Rain Heavy Rain
11:31 PM 62.6 °F 60.8 °F 94% 29.58 in 3.0 mi SSW 15.0 mph 21.9 mph 0.32 in Rain , Thunderstorm Thunderstorms and Rain
11:52 PM 62.1 °F 61.0 °F 96% 29.59 in 4.0 mi SW 12.7 mph 20.7 mph 0.36 in Rain , Thunderstorm Light Thunderstorms and Rain